Location: Fort Worth, Tx
(32.7431°N, 97.3695°W)
Time: 16:21:20
(UTC-04:00)

A-11 Canister half - Pass Details

Date: 26 February 2024
Orbit: 1525 x 1683 km, 47.3° (Epoch: 21 April)

Event Time Altitude Azimuth Distance (km) Brightness Sun altitude
Exits shadow 03:45:34 19° 103° (ESE) 3,047 10.7 -52.9°
Drops below altitude 10° 03:47:47 10° 108° (ESE) 3,721 11.2 -52.5°
Sets 03:50:57 0° 112° (ESE) 4,719 11.9 -51.9°
